Palm Springs, CA

11:39 AM PST on January 18, 2017 (GMT -0800)
Palm Springs International

Weather History for KPSP - November, 2011

Change the Weather History Date:

Wednesday, November 9, 2011

  Actual Average Record
Temperature  
Mean Temperature 61 °F 67 °F  
Max Temperature 74 °F 80 °F 94 °F (1956)
Min Temperature 48 °F 55 °F 37 °F (1946)
Degree Days  
Heating Degree Days 4 1  
Month to date heating degree days 46 9  
Since 1 July heating degree days 46 13  
Cooling Degree Days 0 4  
Month to date cooling degree days 13 44  
Year to date cooling degree days 4146 4106  
Growing Degree Days 12 (Base 50)    
Moisture  
Dew Point 21 °F    
Average Humidity 26    
Maximum Humidity 42    
Minimum Humidity 10    
Precipitation  
Precipitation 0.00 in 0.01 in 0.18 in (1922)
Month to date precipitation 0.14 0.11  
Year to date precipitation 2.53 4.44  
Since 1 July precipitation 1.06  
Snow  
Snow 0.00 in - - ()
Month to date snowfall 0.0  
Year to date snowfall 0.0  
Snow Depth 0.00 in    
Sea Level Pressure  
Sea Level Pressure 30.28 in    
Wind  
Wind Speed 5 mph (West)    
Max Wind Speed 9 mph    
Max Gust Speed 10 mph    
Visibility 10 miles    
Events      
T = Trace of Precipitation, MM = Missing Value Source: NWS Daily Summary

Daily Weather History Graph

Daily Weather History Graph

Search for Another Location

Airport or City:

Trip Planner

Search our weather history database for the weather conditions in past years. The results will help you decide how hot, cold, wet, or windy it might be!

Date:

Astronomy

Nov. 09, 2011 Rise Set
Actual Time 6:12 AM PST 4:46 PM PST
Civil Twilight 5:46 AM PST 5:13 PM PST
Nautical Twilight 5:16 AM PST 5:42 PM PST
Astronomical Twilight 4:46 AM PST 6:12 PM PST
Moon 4:01 PM PST (11/9) 5:12 AM PST (11/9)
Length of Visible Light 11h 26m
Length of Day
10h 34m
Waxing Gibbous, 99% of the Moon is Illuminated
Nov 9
Waxing Gibbous
Nov 10
Full
Nov 18
Last Quarter
Nov 24
New
Dec 2
First Quarter

Hourly Weather History & Observations

Time (PST) Temp. Dew Point Humidity Pressure Visibility Wind Dir Wind Speed Gust Speed Precip Events Conditions
12:53 AM 50.0 °F 28.0 °F 43% 30.29 in 10.0 mi NNW 8.1 mph - N/A   Clear
1:53 AM 53.1 °F 26.1 °F 35% 30.28 in 10.0 mi West 4.6 mph - N/A   Clear
2:53 AM 51.8 °F 24.8 °F 35% 30.28 in 10.0 mi West 3.5 mph - N/A   Clear
3:53 AM 53.1 °F 24.1 °F 32% 30.28 in 10.0 mi WSW 5.8 mph - N/A   Clear
4:53 AM 51.1 °F 24.1 °F 35% 30.29 in 10.0 mi WNW 4.6 mph - N/A   Clear
5:53 AM 52.0 °F 23.0 °F 32% 30.30 in 10.0 mi West 6.9 mph - N/A   Clear
6:53 AM 53.1 °F 23.0 °F 31% 30.32 in 10.0 mi West 4.6 mph - N/A   Clear
7:53 AM 59.0 °F 24.1 °F 26% 30.35 in 10.0 mi WSW 5.8 mph - N/A   Clear
8:53 AM 64.0 °F 21.9 °F 20% 30.36 in 10.0 mi WSW 3.5 mph - N/A   Clear
9:53 AM 66.2 °F 21.2 °F 18% 30.35 in 10.0 mi Variable 3.5 mph - N/A   Clear
11:53 AM 71.1 °F 19.0 °F 14% 30.28 in 10.0 mi East 4.6 mph - N/A   Clear
12:53 PM 72.0 °F 16.0 °F 12% 30.26 in 10.0 mi SSW 4.6 mph - N/A   Clear
1:53 PM 73.0 °F 14.0 °F 11% 30.23 in 10.0 mi Variable 3.5 mph - N/A   Clear
2:53 PM 73.0 °F 14.0 °F 11% 30.22 in 10.0 mi Calm Calm - N/A   Clear
3:53 PM 73.0 °F 14.0 °F 11% 30.21 in 10.0 mi Calm Calm - N/A   Clear
4:53 PM 68.0 °F 21.9 °F 17% 30.22 in 10.0 mi Calm Calm - N/A   Scattered Clouds
5:53 PM 64.9 °F 19.9 °F 18% 30.24 in 10.0 mi WNW 6.9 mph - N/A   Scattered Clouds
6:53 PM 61.0 °F 21.9 °F 22% 30.25 in 10.0 mi West 3.5 mph - N/A   Clear
7:53 PM 61.0 °F 19.9 °F 21% 30.26 in 10.0 mi Variable 4.6 mph - N/A   Clear
8:53 PM 60.1 °F 19.0 °F 20% 30.27 in 10.0 mi West 4.6 mph - N/A   Clear
9:53 PM 61.0 °F 19.0 °F 20% 30.28 in 10.0 mi WNW 4.6 mph - N/A   Clear
10:53 PM 57.9 °F 21.0 °F 24% 30.28 in 10.0 mi WNW 3.5 mph - N/A   Clear
11:53 PM 57.0 °F 21.9 °F 26% 30.29 in 10.0 mi West 4.6 mph - N/A   Clear